Location: Newark
(43.6583°N, 1.6617°E)
Time: 01:38:46
(UTC+00:00)

Transit 4A - Pass Details

Date: 29 August 2019
Orbit: 865 x 980 km, 66.8° (Epoch: 19 September)

Event Time Altitude Azimuth Distance (km) Brightness Sun altitude
Rises 00:15:06 0° 332° (NNW) 3,640 11.7 -36.6°
Reaches altitude 10° 00:17:57 10° 342° (NNW) 2,675 10.9 -36.5°
Maximum altitude 00:23:35 34° 46° (NE) 1,474 9.2 -36.4°
Enters shadow 00:23:46 34° 50° (NE) 1,475 9.2 -36.4°
Drops below altitude 10° 00:29:01 10° 111° (ESE) 2,589 - -36.2°
Sets 00:31:44 0° 120° (ESE) 3,509 - -36.2°
